Orbital Elements at Epoch 2459000.5 (2020-May-31.0) TDB
Reference: JPL 13 (heliocentric ecliptic J2000)
Element | Value | Uncertainty (1-sigma) | Units |
e | .07983293812739069 | 7.0018e-08 | |
a | 2.809868368767307 | 2.1776e-08 | au |
q | 2.585548321137394 | 2.0562e-07 | au |
i | .899550245794093 | 5.7914e-06 | deg |
node | 138.6103256609275 | 0.00040767 | deg |
peri | 252.519598607549 | 0.00040968 | deg |
M | 313.8193188336391 | 3.6771e-05 | deg |
tp | 2459221.191305469973 (2021-Jan-06.69130547) | 0.00017549 | TDB |
period | 1720.391903336901 4.71 | 1.9999e-05 5.475e-08 | d yr |
n | .209254646747487 | 2.4325e-09 | deg/d |
Q | 3.03418841639722 | 2.3515e-08 | au |
|
| | Orbit Determination Parameters
Additional Information
|